This demonstration page uses our WeatherBlox Daily Observations layout. Learn more.

Left ArrowRight Arrow

30.00354, -91.81873

Hourly Observations for August 1, 2022

Temp ( °F °C ) Dew Point ( °F °C ) Humidity (%) Winds ( mph kmh ) Pressure ( in mb ) Visibility ( mi km ) Precip ( " mm )
12:53 am 00:53 Clear 77 25 74 23.3 90 90 SSE 6 9 30.10 1019 10 16 0.00 0.00
1:53 am 01:53 Clear 76 24.4 74 23.3 94 94 SE 6 9 30.09 1019 10 16 0.00 0.00
2:53 am 02:53 Clear 77 25 74 23.3 90 90 ESE 3 6 30.09 1019 10 16 0.00 0.00
3:53 am 03:53 Clear 77 25 74 23.3 90 90 E 5 7 30.09 1019 10 16 0.00 0.00
4:53 am 04:53 Clear 76 24.4 73 22.8 91 91 SE 5 7 30.09 1019 10 16 0.00 0.00
5:53 am 05:53 Clear 77 25 74 23.3 90 90 SE 6 9 30.09 1019 10 16 0.00 0.00
6:53 am 06:53 Sunny 76 24.4 74 23.3 94 94 SE 3 6 30.11 1020 10 16 0.00 0.00
7:53 am 07:53 Sunny 79 26.1 76 24.4 90 90 SE 5 7 30.11 1020 10 16 0.00 0.00
8:53 am 08:53 Sunny 82 27.8 77 25 85 85 SSE 6 9 30.12 1020 10 16 0.00 0.00
9:53 am 09:53 Mostly Cloudy 86 30 77 25 75 75 SSW 6 9 30.13 1020 10 16 0.00 0.00
10:00 am 10:00 Mostly Sunny 86 30 76 24.4 72 72 SSW 6 9 30.13 1020 10 16 0.00 0.00
10:08 am 10:08 Mostly Cloudy 87 30.6 76 24.4 70 70 SSW 7 11 30.13 1020 10 16 0.00 0.00
10:53 am 10:53 Mostly Cloudy 90 32.2 74 23.3 59 59 SW 9 15 30.13 1020 10 16 0.00 0.00
11:00 am 11:00 Mostly Sunny 90 32.2 74 23.3 59 59 SW 8 13 30.13 1020 10 16 0.00 0.00
11:53 am 11:53 Sunny 89 31.7 73 22.8 59 59 SW 9 15 30.13 1020 10 16 0.00 0.00
12:53 pm 12:53 Mostly Sunny 91 32.8 73 22.8 56 56 SW 8 13 30.11 1020 10 16 0.00 0.00
1:53 pm 13:53 Mostly Cloudy with Light Rain 86 30 77 25 75 75 S 8 13 30.09 1019 10 16 0.00 0.00
2:27 pm 14:27 Partly Cloudy with Thunderstorms 89 31.7 74 23.3 61 61 SW 8 13 30.09 1019 10 16 0.00 0.00
2:42 pm 14:42 Sunny with Nearby Thunderstorms 89 31.7 74 23.3 61 61 SSW 9 15 30.09 1019 10 16 0.00 0.00
2:53 pm 14:53 Sunny with Nearby Thunderstorms 89 31.7 73 22.8 59 59 SW 6 9 30.08 1019 10 16 0.00 0.00
3:05 pm 15:05 Sunny 89 31.7 74 23.3 61 61 WSW 5 7 30.09 1019 10 16 0.00 0.00
3:53 pm 15:53 Partly Cloudy 88 31.1 76 24.4 68 68 SSW 8 13 30.07 1018 10 16 0.00 0.00
4:04 pm 16:04 Mostly Cloudy with Nearby Thunderstorms 86 30 73 22.8 65 65 SW 13 20 30.08 1019 10 16 0.00 0.00
4:22 pm 16:22 Cloudy with Thunderstorms 82 27.8 72 22.2 72 72 WSW 6 9 30.09 1019 10 16 0.01 0.25
4:33 pm 16:33 Cloudy with Strong Thunderstorms 79 26.1 72 22.2 79 79 SSW 12 19 30.09 1019 2 3 0.10 2.54
4:41 pm 16:41 Cloudy with Rain 80 26.7 71 21.7 74 74 S 5 7 30.08 1019 2 3 0.13 3.30
4:49 pm 16:49 Mostly Cloudy with Light Rain 81 27 72 22 74 74 S 5 7 30.08 1019 7 11 0.13 3.30
4:53 pm 16:53 Cloudy with Light Rain 81 27.2 73 22.8 77 77 S 5 7 30.08 1019 10 16 0.13 3.30
5:53 pm 17:53 Mostly Sunny 83 28.3 77 25 82 82 ESE 3 6 30.08 1019 10 16 0.01 0.25
6:53 pm 18:53 Partly Cloudy 82 27.8 76 24.4 82 82 E 7 11 30.08 1019 10 16 0.00 0.00
7:53 pm 19:53 Sunny 80 26.7 74 23.3 82 82 ESE 6 9 30.07 1018 10 16 0.00 0.00
8:53 pm 20:53 Clear 78 25.6 74 23.3 87 87 SE 5 7 30.06 1018 10 16 0.00 0.00
9:53 pm 21:53 Clear 78 25.6 74 23.3 87 87 ESE 5 7 30.07 1018 10 16 0.00 0.00
10:53 pm 22:53 Clear 78 25.6 74 23.3 87 87 SE 5 7 30.08 1019 10 16 0.00 0.00
11:53 pm 23:53 Clear 77 25 74 23.3 90 90 SE 7 11 30.07 1018 10 16 0.00 0.00

Powered by AerisWeather